FW1564 Weather Reports


Display with metric or nautical units.
time (UTC)temp
F
wind
direction
speed
MPH
gust
MPH
rain 1hr
in
rain 24hr
in
rain mn
in
humidity
%
barometer
mb
20260506051231 55 241 0.0 3.0 0.00 0.35 0.00 91 1015.2
20260506050231 55 347 0.0 4.0 0.00 0.35 0.00 91 1015.1
20260506044232 55 342 1.0 3.0 0.00 0.36 0.00 91 1015.3
20260506043232 55 328 0.0 2.0 0.00 0.36 0.00 91 1015.3
20260506042233 56 347 1.0 1.0 0.00 0.36 0.00 90 1015.2
20260506041233 56 180 0.0 2.0 0.00 0.37 0.00 89 1015.2
20260506040231 56 24 2.0 4.0 0.00 0.38 0.00 88 1014.8
20260506035232 55 352 1.0 4.0 0.00 0.39 0.00 89 1014.6
20260506034231 55 308 0.0 3.0 0.00 0.40 0.00 90 1014.7
20260506033235 55 355 1.0 3.0 0.00 0.42 0.00 91 1014.7
20260506032700 56 356 2.0 3.0 0.00 0.44 0.00 92 1015.1
20260506031710 56 0 0.0 3.0 0.00 0.47 0.00 92 1014.8
20260506030220 56 310 0.0 1.0 0.00 0.49 0.00 92 1014.9
20260506025206 56 145 0.0 4.0 0.00 0.51 0.00 91 1015.1
20260506024208 56 5 0.0 2.0 0.00 0.52 0.00 89 1015.1
20260506023210 56 272 1.0 3.0 0.00 0.53 0.00 89 1015.2
20260506022206 56 8 1.0 2.0 0.00 0.53 0.00 91 1015.3
20260506021208 56 350 1.0 3.0 0.00 0.54 0.00 90 1015.4
20260506020206 56 345 1.0 2.0 0.00 0.54 0.00 90 1015.6
20260506015642 56 353 0.0 3.0 0.00 0.55 0.00 90 1015.6
20260506014142 56 344 1.0 3.0 0.00 0.55 0.00 90 1015.5
20260506013617 56 339 2.0 3.0 0.00 0.55 0.00 91 1015.5
20260506012144 56 12 0.0 4.0 0.00 0.55 0.00 87 1015.8
20260506011143 56 352 2.0 3.0 0.00 0.55 0.00 90 1015.7
20260506010142 56 341 3.0 4.0 0.00 0.55 0.00 89 1015.9
20260506005142 56 342 1.0 4.0 0.00 0.55 0.00 89 1015.7
20260506004143 57 343 2.0 3.0 0.00 0.55 0.00 89 1015.9
20260506003142 57 343 2.0 4.0 0.00 0.55 0.00 88 1015.9
20260506002143 56 343 3.0 4.0 0.00 0.56 0.00 90 1015.9
20260506001627 56 357 2.0 4.0 0.00 0.56 0.00 89 1015.9
20260506000625 56 337 4.0 4.0 0.00 0.56 0.00 92 1015.8
20260505235624 56 327 2.0 4.0 0.00 0.56 0.00 92 1016.0
20260505234131 56 26 2.0 4.0 0.00 0.56 0.00 94 1016.0
20260505233130 57 352 3.0 3.0 0.00 0.57 0.00 95 1016.1
20260505232608 57 69 0.0 4.0 0.00 0.57 0.00 95 1015.9
20260505232106 58 17 0.0 1.0 0.00 0.57 0.00 95 1015.9
20260505230131 58 71 0.0 2.0 0.00 0.57 0.00 95 1016.1
20260505225605 58 163 0.0 4.0 0.00 0.58 0.57 95 1015.9
20260505224130 58 229 2.0 2.0 0.00 0.59 0.57 96 1015.9
20260505223130 58 159 1.0 3.0 0.00 0.59 0.57 96 1016.0
20260505222131 58 232 0.0 2.0 0.00 0.60 0.57 96 1016.1
20260505221131 58 14 0.0 1.0 0.00 0.61 0.57 96 1016.1
20260505220131 58 0 0.0 1.0 0.00 0.61 0.57 96 1016.1
20260505215107 58 24 0.0 1.0 0.00 0.61 0.57 96 1015.9
20260505214056 58 144 1.0 2.0 0.00 0.61 0.57 96 1016.0
20260505213534 58 341 1.0 1.0 0.00 0.61 0.57 96 1015.9
20260505212054 58 340 0.0 1.0 0.00 0.61 0.57 96 1015.8
20260505211054 58 20 1.0 1.0 0.00 0.61 0.57 96 1015.9
20260505210120 58 349 0.0 2.0 0.00 0.61 0.57 96 1015.8
20260505205056 58 107 1.0 2.0 0.00 0.61 0.57 96 1015.7
20260505204055 58 24 1.0 1.0 0.00 0.61 0.57 96 1015.7
20260505203057 58 123 0.0 2.0 0.00 0.61 0.57 96 1015.8
20260505202054 59 2 0.0 3.0 0.00 0.61 0.57 95 1015.5
20260505201054 59 184 3.0 3.0 0.00 0.62 0.57 95 1015.6
20260505200104 59 129 0.0 2.0 0.00 0.63 0.57 95 1015.5
20260505195532 59 193 0.0 3.0 0.00 0.63 0.57 94 1015.4
20260505194055 59 232 1.0 2.0 0.00 0.63 0.57 94 1015.3
20260505193055 60 201 2.0 6.0 0.00 0.63 0.57 93 1015.1
20260505192055 59 246 3.0 7.0 0.00 0.63 0.57 92 1014.9
20260505191539 60 78 0.0 4.0 0.00 0.63 0.57 94 1015.1
20260505190055 60 218 2.0 3.0 0.00 0.63 0.57 93 1014.8
20260505185537 60 142 3.0 6.0 0.00 0.63 0.57 93 1014.9
20260505184054 60 206 2.0 3.0 0.00 0.63 0.57 93 1014.9
20260505183054 60 30 1.0 3.0 0.00 0.63 0.57 93 1015.1
20260505182054 61 120 0.0 4.0 0.00 0.63 0.57 92 1015.1
20260505181053 61 192 1.0 3.0 0.00 0.63 0.57 92 1015.1
20260505180523 61 162 1.0 3.0 0.00 0.63 0.57 91 1014.9
20260505175043 62 96 0.0 6.0 0.00 0.63 0.57 90 1015.1
20260505174042 63 108 1.0 6.0 0.00 0.63 0.57 90 1015.3
20260505173042 63 156 0.0 7.0 0.00 0.63 0.57 87 1015.3
20260505172043 63 163 2.0 6.0 0.00 0.63 0.57 87 1015.1
20260505171042 62 146 0.0 2.0 0.00 0.63 0.57 90 1015.1
20260505170043 62 150 2.0 4.0 0.00 0.63 0.57 91 1015.2
20260505165041 63 164 4.0 4.0 0.00 0.63 0.57 91 1015.1
20260505164042 62 143 1.0 4.0 0.00 0.63 0.57 93 1015.2
20260505163043 62 155 2.0 6.0 0.00 0.63 0.57 95 1015.3
20260505162041 61 187 3.0 6.0 0.00 0.63 0.57 95 1015.3
20260505161043 61 127 3.0 6.0 0.00 0.63 0.57 95 1015.4
20260505160518 61 294 3.0 6.0 0.00 0.63 0.57 95 1015.4
20260505153043 60 101 1.0 3.0 0.00 0.63 0.57 96 1015.6
20260505152042 60 148 1.0 4.0 0.01 0.63 0.57 96 1015.6
20260505151043 60 75 2.0 6.0 0.01 0.63 0.57 96 1015.8
20260505124042 62 151 3.0 4.0 0.00 0.55 0.49 91 1016.2
20260505123042 63 167 3.0 4.0 0.00 0.55 0.49 90 1016.2
20260505122042 62 120 1.0 3.0 0.00 0.55 0.49 89 1016.2
20260505121530 62 129 0.0 4.0 0.00 0.55 0.49 87 1016.1
20260505120042 62 79 1.0 4.0 0.00 0.55 0.49 88 1016.2
20260505115042 62 144 4.0 6.0 0.00 0.55 0.49 89 1016.2
20260505114516 62 96 2.0 6.0 0.00 0.57 0.49 91 1016.2
20260505113043 62 187 3.0 6.0 0.00 0.60 0.49 91 1016.2
20260505112042 62 147 1.0 3.0 0.00 0.62 0.49 90 1016.2
20260505111043 62 135 2.0 4.0 0.00 0.63 0.49 90 1015.9
20260505102042 59 116 0.0 2.0 0.05 0.73 0.49 96 1015.4
20260505101042 60 94 1.0 2.0 0.07 0.73 0.49 96 1015.4
20260505100055 59 7 0.0 3.0 0.08 0.73 0.49 96 1015.6
20260505095042 58 343 2.0 2.0 0.08 0.71 0.47 96 1015.6
20260505094042 58 350 2.0 2.0 0.08 0.69 0.45 96 1015.6
20260505093955 58 346 2.0 3.0 0.08 0.68 0.44 96 1015.5
20260505092524 58 351 2.0 3.0 0.09 0.68 0.44 96 1015.5
20260505091043 58 338 1.0 2.0 0.08 0.66 0.42 96 1015.3
20260505090043 58 357 2.0 3.0 0.08 0.65 0.41 96 1015.6
20260505090000 58 337 1.0 3.0 0.07 0.63 0.39 96 1015.5
20260505084043 58 335 1.0 3.0 0.06 0.61 0.37 96 1015.6
20260505083042 58 338 1.0 2.0 0.06 0.60 0.36 95 1015.3
20260505082042 58 350 2.0 3.0 0.05 0.59 0.35 95 1015.2
20260505081044 58 356 0.0 2.0 0.04 0.58 0.34 95 1015.1
20260505080042 58 342 1.0 3.0 0.04 0.57 0.33 94 1015.3
20260505075042 58 340 2.0 4.0 0.04 0.56 0.33 93 1015.2
20260505074042 58 344 4.0 6.0 0.03 0.55 0.31 93 1014.9
20260505073042 58 8 3.0 6.0 0.03 0.54 0.30 93 1014.8
20260505072042 58 342 4.0 6.0 0.04 0.54 0.30 93 1014.9
20260505071043 58 347 4.0 4.0 0.05 0.54 0.30 94 1014.7
20260505070042 57 340 4.0 6.0 0.05 0.53 0.29 95 1014.7
20260505065529 57 341 2.0 3.0 0.04 0.52 0.28 95 1014.6
20260505064042 57 340 2.0 3.0 0.04 0.52 0.28 95 1014.8
20260505063042 57 344 1.0 2.0 0.04 0.51 0.27 95 1014.8
20260505062042 57 337 1.0 3.0 0.03 0.50 0.26 94 1014.8
20260505061042 57 333 0.0 2.0 0.03 0.49 0.25 94 1014.7
20260505060042 58 1 2.0 6.0 0.02 0.48 0.24 93 1014.8
20260505055042 58 328 4.0 8.0 0.03 0.48 0.24 91 1014.4
20260505054042 58 352 6.0 8.0 0.03 0.48 0.24 92 1014.4